Chariton, IA

12:10 PM CDT on April 25, 2017 (GMT -0500)
Chariton Municipal

Weather History for KCNC - December, 2012

Change the Weather History Date:

Thursday, December 13, 2012

  Actual Average Record
Temperature  
Mean Temperature 42 °F -  
Max Temperature 53 °F 38 °F 60 °F (1975)
Min Temperature 32 °F 16 °F -22 °F (1961)
Degree Days  
Heating Degree Days 22    
Moisture  
Dew Point 18 °F    
Average Humidity 42    
Maximum Humidity 64    
Minimum Humidity 22    
Precipitation  
Precipitation 0.00 in - - ()
Sea Level Pressure  
Sea Level Pressure 30.09 in    
Wind  
Wind Speed 14 mph (SSW)    
Max Wind Speed 21 mph    
Max Gust Speed 25 mph    
Visibility 10 miles    
Events      
Averages and records for this station are not official NWS values.
T = Trace of Precipitation, MM = Missing Value Source: NWS Daily Summary

Daily Weather History Graph

Daily Weather History Graph

Search for Another Location

Airport or City:

Trip Planner

Search our weather history database for the weather conditions in past years. The results will help you decide how hot, cold, wet, or windy it might be!

Date:

Astronomy

Dec. 13, 2012 Rise Set
Actual Time 7:30 AM CST 4:45 PM CST
Civil Twilight 6:59 AM CST 5:16 PM CST
Nautical Twilight 6:24 AM CST 5:51 PM CST
Astronomical Twilight 5:51 AM CST 6:24 PM CST
Moon 7:39 AM CST (12/13) 5:28 PM CST (12/13)
Length of Visible Light 10h 17m
Length of Day
9h 15m
New Moon, 0% of the Moon is Illuminated
Dec 13
New Moon
Dec 19
First Quarter
Dec 28
Full
Jan 4
Last Quarter
Jan 11
New

Hourly Weather History & Observations

Time (CST) Temp. Windchill Dew Point Humidity Pressure Visibility Wind Dir Wind Speed Gust Speed Precip Events Conditions
12:15 AM 37.4 °F 28.9 °F 15.8 °F 41% 30.12 in 10.0 mi South 13.8 mph 21.9 mph N/A   Clear
12:35 AM 35.6 °F 26.2 °F 15.8 °F 44% 30.12 in 10.0 mi South 15.0 mph - N/A   Clear
12:55 AM 35.6 °F 26.6 °F 15.8 °F 44% 30.12 in 10.0 mi South 13.8 mph - N/A   Clear
1:15 AM 35.6 °F 26.2 °F 17.6 °F 48% 30.11 in 10.0 mi South 15.0 mph - N/A   Clear
1:35 AM 35.6 °F 26.2 °F 17.6 °F 48% 30.11 in 10.0 mi South 15.0 mph - N/A   Clear
1:55 AM 35.6 °F 25.9 °F 17.6 °F 48% 30.11 in 10.0 mi South 16.1 mph - N/A   Clear
2:15 AM 35.6 °F 26.2 °F 17.6 °F 48% 30.11 in 10.0 mi South 15.0 mph - N/A   Clear
2:35 AM 35.6 °F 25.5 °F 17.6 °F 48% 30.11 in 10.0 mi South 17.3 mph - N/A   Clear
2:55 AM 35.6 °F 25.9 °F 17.6 °F 48% 30.11 in 10.0 mi South 16.1 mph - N/A   Clear
3:15 AM 35.6 °F 25.9 °F 17.6 °F 48% 30.11 in 10.0 mi South 16.1 mph - N/A   Clear
3:35 AM 35.6 °F 25.5 °F 17.6 °F 48% 30.10 in 10.0 mi South 17.3 mph - N/A   Clear
4:15 AM 33.8 °F 23.9 °F 17.6 °F 52% 30.08 in 10.0 mi South 15.0 mph - N/A   Clear
4:35 AM 35.6 °F 25.5 °F 17.6 °F 48% 30.08 in 10.0 mi South 17.3 mph 21.9 mph N/A   Clear
4:55 AM 35.6 °F 25.9 °F 17.6 °F 48% 30.07 in 10.0 mi South 16.1 mph 23.0 mph N/A   Clear
5:15 AM 37.4 °F 27.5 °F 17.6 °F 45% 30.07 in 10.0 mi South 18.4 mph - N/A   Clear
5:35 AM 37.4 °F 27.2 °F 17.6 °F 45% 30.06 in 10.0 mi South 19.6 mph - N/A   Clear
5:55 AM 35.6 °F 26.2 °F 17.6 °F 48% 30.07 in 10.0 mi South 15.0 mph - N/A   Clear
6:15 AM 35.6 °F 25.5 °F 17.6 °F 48% 30.07 in 10.0 mi South 17.3 mph 21.9 mph N/A   Clear
6:35 AM 35.6 °F 25.9 °F 17.6 °F 48% 30.08 in 10.0 mi South 16.1 mph - N/A   Clear
6:55 AM 35.6 °F 27.1 °F 17.6 °F 48% 30.08 in 10.0 mi SSW 12.7 mph - N/A   Clear
7:15 AM 35.6 °F 27.1 °F 17.6 °F 48% 30.08 in 10.0 mi South 12.7 mph - N/A   Clear
7:35 AM 35.6 °F 26.2 °F 17.6 °F 48% 30.08 in 10.0 mi South 15.0 mph - N/A   Clear
7:55 AM 35.6 °F 26.6 °F 17.6 °F 48% 30.08 in 10.0 mi South 13.8 mph - N/A   Clear
8:15 AM 37.4 °F 28.5 °F 19.4 °F 48% 30.08 in 10.0 mi South 15.0 mph 20.7 mph N/A   Clear
8:35 AM 37.4 °F 28.2 °F 19.4 °F 48% 30.08 in 10.0 mi SSW 16.1 mph - N/A   Clear
8:55 AM 39.2 °F 30.2 °F 19.4 °F 45% 30.08 in 10.0 mi SSW 17.3 mph 23.0 mph N/A   Clear
9:15 AM 41.0 °F 32.2 °F 17.6 °F 39% 30.09 in 10.0 mi SSW 18.4 mph 23.0 mph N/A   Clear
9:35 AM 42.8 °F 34.8 °F 17.6 °F 36% 30.09 in 10.0 mi SSW 17.3 mph 24.2 mph N/A   Clear
9:55 AM 44.6 °F 36.4 °F 15.8 °F 31% 30.10 in 10.0 mi SSW 20.7 mph 25.3 mph N/A   Clear
10:15 AM 44.6 °F 38.4 °F 17.6 °F 34% 30.11 in 10.0 mi SW 12.7 mph 21.9 mph N/A   Clear
10:35 AM 44.6 °F 37.2 °F 15.8 °F 31% 30.10 in 10.0 mi SW 17.3 mph 24.2 mph N/A   Clear
10:55 AM 46.4 °F 39.5 °F 15.8 °F 29% 30.09 in 10.0 mi SSW 17.3 mph - N/A   Clear
11:15 AM 48.2 °F - 15.8 °F 27% 30.09 in 10.0 mi SW 15.0 mph 25.3 mph N/A   Clear
11:35 AM 46.4 °F 40.1 °F 15.8 °F 29% 30.08 in 10.0 mi SW 15.0 mph 25.3 mph N/A   Clear
11:55 AM 48.2 °F - 17.6 °F 30% 30.08 in 10.0 mi SW 18.4 mph 23.0 mph N/A   Clear
12:15 PM 50.0 °F - 15.8 °F 26% 30.09 in 10.0 mi SW 16.1 mph 19.6 mph N/A   Clear
12:35 PM 50.0 °F - 15.8 °F 26% 30.08 in 10.0 mi SSW 15.0 mph - N/A   Clear
12:55 PM 50.0 °F - 15.8 °F 26% 30.07 in 10.0 mi SSW 10.4 mph 18.4 mph N/A   Clear
1:15 PM 51.8 °F - 15.8 °F 24% 30.07 in 10.0 mi SW 13.8 mph 18.4 mph N/A   Clear
1:35 PM 51.8 °F - 17.6 °F 26% 30.06 in 10.0 mi SSW 13.8 mph - N/A   Clear
1:55 PM 53.6 °F - 15.8 °F 22% 30.05 in 10.0 mi SSW 16.1 mph - N/A   Clear
2:15 PM 53.6 °F - 15.8 °F 22% 30.06 in 10.0 mi SSW 12.7 mph 16.1 mph N/A   Clear
2:35 PM 53.6 °F - 15.8 °F 22% 30.06 in 10.0 mi SSW 13.8 mph - N/A   Clear
2:55 PM 53.6 °F - 15.8 °F 22% 30.06 in 10.0 mi SSW 13.8 mph 17.3 mph N/A   Clear
3:15 PM 53.6 °F - 15.8 °F 22% 30.06 in 10.0 mi SSW 11.5 mph - N/A   Clear
3:35 PM 51.8 °F - 17.6 °F 26% 30.06 in 10.0 mi SSW 8.1 mph - N/A   Clear
3:55 PM 50.0 °F - 17.6 °F 28% 30.07 in 10.0 mi SW 5.8 mph - N/A   Clear
4:15 PM 50.0 °F - 19.4 °F 30% 30.08 in 10.0 mi SW 4.6 mph - N/A   Clear
4:35 PM 50.0 °F - 19.4 °F 30% 30.08 in 10.0 mi SSW 4.6 mph - N/A   Clear
7:15 PM 39.2 °F 35.9 °F 21.2 °F 49% 30.10 in 10.0 mi South 4.6 mph - N/A   Clear
7:35 PM 39.2 °F 37.0 °F 21.2 °F 49% 30.11 in 10.0 mi South 3.5 mph - N/A   Clear
7:55 PM 39.2 °F 35.0 °F 21.2 °F 49% 30.11 in 10.0 mi South 5.8 mph - N/A   Clear
8:15 PM 37.4 °F 32.1 °F 21.2 °F 52% 30.11 in 10.0 mi South 6.9 mph - N/A   Clear
8:35 PM 35.6 °F 30.7 °F 21.2 °F 56% 30.11 in 10.0 mi South 5.8 mph - N/A   Clear
8:55 PM 37.4 °F 32.8 °F 21.2 °F 52% 30.10 in 10.0 mi South 5.8 mph - N/A   Clear
9:15 PM 35.6 °F 31.7 °F 21.2 °F 56% 30.11 in 10.0 mi South 4.6 mph - N/A   Clear
9:35 PM 35.6 °F 31.7 °F 21.2 °F 56% 30.11 in 10.0 mi South 4.6 mph - N/A   Clear
9:55 PM 35.6 °F 30.7 °F 21.2 °F 56% 30.11 in 10.0 mi South 5.8 mph - N/A   Clear
10:15 PM 35.6 °F 31.7 °F 21.2 °F 56% 30.11 in 10.0 mi South 4.6 mph - N/A   Clear
10:35 PM 37.4 °F 32.8 °F 21.2 °F 52% 30.11 in 10.0 mi South 5.8 mph - N/A   Clear
10:55 PM 35.6 °F 30.7 °F 21.2 °F 56% 30.11 in 10.0 mi South 5.8 mph - N/A   Clear
11:15 PM 32.0 °F 27.5 °F 21.2 °F 64% 30.11 in 10.0 mi South 4.6 mph - N/A   Clear
11:35 PM 32.0 °F - 21.2 °F 64% 30.11 in 10.0 mi Calm Calm - N/A   Clear